DateTimeUTC,F1_A11,F1_S11,BsB_S11,BsG_S11,BsR_S11,BbsB_S11,BbsG_S11,BbsR_S11,BaB_A11,BaG_A11,BaR_A11,Tu_S11,T_S11,Uu_S11,U_S11,P_S11,T1_A11
2021-08-10T18:00:00Z,00040200,20000000,,,,,,,-000.10,0000.17,0000.14,19.2,25.7,06.1,04.1,0675.4,31.1
2021-08-10T18:01:00Z,00040200,20000000,,,,,,,0000.14,0000.02,-000.27,19.2,25.8,06.1,04.1,0675.4,31.1
2021-08-10T18:02:00Z,00040200,20000000,,,,,,,-000.17,-000.13,0000.19,19.2,25.8,06.1,04.1,0675.4,31.1
2021-08-10T18:03:00Z,00040200,60000000,,,,,,,0000.29,0000.74,0000.19,19.2,25.8,06.1,04.1,0675.4,31.1
2021-08-10T18:04:00Z,00040200,40000000,0002.14,0002.30,0001.38,0000.38,-000.02,0000.24,0000.86,0000.42,0000.83,19.3,25.6,06.2,04.2,0676.3,31.1
2021-08-10T18:05:00Z,00040200,00000000,0002.16,0002.05,0001.31,0000.72,0000.07,-000.17,0000.57,0000.27,0000.50,19.4,25.5,06.3,04.3,0676.4,31.1
2021-08-10T18:06:00Z,00040200,00000000,0002.16,0001.62,0000.95,0000.37,0000.19,-000.09,0000.21,0000.62,0000.03,19.4,25.6,06.3,04.3,0676.4,31.1
2021-08-10T18:07:00Z,00040200,00000000,0001.80,0001.53,0001.21,0000.10,0000.28,0000.05,0000.66,0000.59,0000.42,19.4,25.6,06.3,04.3,0676.4,31.1
2021-08-10T18:08:00Z,00040200,00000000,0002.80,0001.89,0001.71,0001.15,0000.31,0000.23,0000.18,0000.20,0000.27,19.4,25.5,06.3,04.3,0676.4,31.1
2021-08-10T18:09:00Z,00040200,00000000,0002.82,0001.91,0001.21,0000.13,0000.07,-000.15,0000.51,0000.32,0000.40,19.4,25.5,06.3,04.3,0676.4,31.1
2021-08-10T18:10:00Z,00040200,00000000,0002.21,0001.72,0001.79,0000.06,0000.19,0000.04,0000.17,0000.07,0000.38,19.4,25.6,06.3,04.3,0676.4,31.1
2021-08-10T18:11:00Z,00040200,00000000,0002.65,0002.13,0001.55,0000.87,0000.05,0000.35,0000.51,0000.53,0000.23,19.4,25.5,06.2,04.2,0676.4,31.1
2021-08-10T18:12:00Z,00040200,00000000,0002.35,0002.01,0001.54,0000.85,0000.43,-000.08,0000.20,0000.62,0000.14,19.4,25.5,06.2,04.3,0676.5,31.1
2021-08-10T18:13:00Z,00040200,00000000,0002.94,0001.80,0001.42,0000.37,-000.08,-000.10,0000.44,-000.14,0000.62,19.4,25.6,06.2,04.3,0676.4,31.1
2021-08-10T18:14:00Z,00040200,00000000,0002.62,0001.72,0001.00,0000.27,0000.00,-000.05,0000.54,0000.51,-000.12,19.4,25.6,06.2,04.3,0676.4,31.1
2021-08-10T18:15:00Z,00040200,00000000,0002.20,0002.14,0001.35,0000.09,-000.27,0000.31,-000.02,0000.56,0000.24,19.4,25.5,06.2,04.3,0676.4,31.1
2021-08-10T18:16:00Z,00040200,00000000,0002.30,0001.81,0001.32,0000.08,0000.20,0000.16,0000.50,0000.32,0000.77,19.4,25.5,06.2,04.3,0676.4,31.1
2021-08-10T18:17:00Z,00040200,00000000,0002.54,0001.63,0001.07,0000.06,0000.38,-000.01,0000.41,0000.56,-000.03,19.4,25.6,06.2,04.3,0676.4,31.1
2021-08-10T18:18:00Z,00040200,00000000,0002.22,0001.78,0001.15,0000.73,0000.19,0000.11,0000.78,0000.36,0000.90,19.4,25.5,06.1,04.2,0676.5,31.1
2021-08-10T18:19:00Z,00040200,00000000,0002.47,0001.60,0001.01,0000.31,0000.25,-000.12,-000.06,0000.20,0000.14,19.4,25.6,06.3,04.3,0676.5,31.1
2021-08-10T18:20:00Z,00040200,00000000,0002.61,0002.23,0000.77,0000.78,-000.19,0000.15,0000.46,0000.64,0000.43,19.4,25.6,06.3,04.4,0676.5,31.1
2021-08-10T18:21:00Z,00040200,00000000,0002.26,0001.49,0001.42,-000.09,-000.03,0000.12,0001.05,0000.82,0000.72,19.4,25.5,06.4,04.4,0676.5,31.1
2021-08-10T18:22:00Z,00040200,00000000,0002.12,0002.09,0001.45,0000.38,0000.36,0000.01,0000.20,0000.03,0000.25,19.4,25.6,06.6,04.5,0676.5,31.1
2021-08-10T18:23:00Z,00040200,00000000,0002.40,0001.82,0000.90,0000.20,-000.04,-000.15,0001.06,0000.61,0000.87,19.4,25.6,06.6,04.5,0676.5,31.1
2021-08-10T18:24:00Z,00040200,00000000,0002.05,0001.92,0001.25,-000.29,0000.42,0000.26,0000.51,0000.97,0000.57,19.4,25.6,06.8,04.6,0676.5,31.1
2021-08-10T18:25:00Z,00040200,00000000,0001.54,0001.75,0001.10,0000.85,0000.22,-000.01,0000.90,0000.04,0000.66,19.4,25.6,06.8,04.6,0676.5,31.1
2021-08-10T18:26:00Z,00040200,00000000,0001.65,0001.74,0001.37,0000.24,0000.04,-000.15,-000.03,0001.18,0000.33,19.4,25.6,07.1,04.8,0676.5,31.1
2021-08-10T18:27:00Z,00040200,00000000,0002.64,0001.64,0001.09,0000.68,-000.09,-000.03,0000.82,0000.36,0000.61,19.4,25.6,07.1,04.9,0676.4,31.1
2021-08-10T18:28:00Z,00040200,00000000,0002.82,0001.71,0001.01,0000.19,0000.12,0000.30,0000.05,-000.05,0000.15,19.4,25.6,07.2,04.9,0676.4,31.1
2021-08-10T18:29:00Z,00040200,00000000,0002.52,0001.62,0001.05,-000.20,0000.12,-000.17,0000.67,0000.90,0000.75,19.4,25.5,07.3,05.0,0676.4,31.1
2021-08-10T18:30:00Z,00040200,00000000,0002.28,0001.86,0001.17,0000.37,0000.34,0000.19,0000.42,0000.15,0000.03,19.4,25.5,07.4,05.1,0676.5,31.1
2021-08-10T18:31:00Z,00040200,00000000,0001.52,0001.75,0001.10,-000.30,0000.12,-000.25,0000.20,0000.53,0000.30,19.4,25.6,07.3,05.0,0676.4,31.1
2021-08-10T18:32:00Z,00040200,00000000,0002.28,0001.67,0000.81,0000.17,-000.01,0000.04,0000.30,0000.18,0000.47,19.4,25.5,07.4,05.1,0676.4,31.1
2021-08-10T18:33:00Z,00040200,00000000,0001.91,0001.64,0000.75,0000.78,0000.27,0000.25,0000.30,0000.62,0000.10,19.4,25.5,07.4,05.1,0676.4,31.1
2021-08-10T18:34:00Z,00040200,00000000,0001.62,0001.64,0001.16,0000.32,0000.24,0000.03,0000.42,0000.30,0000.35,19.4,25.6,07.4,05.1,0676.4,31.1
2021-08-10T18:35:00Z,00040200,00000000,0001.12,0001.79,0001.00,-000.25,0000.19,-000.06,0000.08,-000.21,0000.41,19.4,25.6,07.4,05.1,0676.4,31.1
2021-08-10T18:36:00Z,00040200,00000000,0001.55,0001.40,0001.19,0000.06,-000.03,-000.18,0000.27,0000.51,0000.21,19.4,25.6,07.4,05.1,0676.4,31.1
2021-08-10T18:37:00Z,00040200,00000000,0002.25,0001.48,0000.78,0000.27,-000.22,0000.21,0000.19,0000.10,0000.10,19.4,25.5,07.3,05.0,0676.4,31.1
2021-08-10T18:38:00Z,00040200,00000000,0002.36,0001.63,0000.99,0000.17,0000.28,0000.10,-000.04,-000.09,-000.12,19.4,25.6,07.3,05.0,0676.5,31.1
2021-08-10T18:39:00Z,00040200,00000000,0002.22,0001.34,0000.57,0000.14,-000.14,-000.07,-000.31,-000.16,-000.07,19.4,25.6,07.3,05.0,0676.5,31.1
2021-08-10T18:40:00Z,00040200,00000000,0001.39,0001.31,0000.95,0000.45,0000.07,0000.14,0000.52,0000.62,-000.09,19.4,25.6,07.1,04.9,0676.4,31.1
2021-08-10T18:41:00Z,00040200,00000000,0001.58,0001.07,0000.96,0000.64,0000.10,0000.03,-000.00,-000.38,0000.64,19.4,25.5,07.1,04.9,0676.5,31.1
2021-08-10T18:42:00Z,00040200,00000000,0001.31,0001.19,0001.00,0000.28,-000.00,-000.03,0000.46,0000.30,0000.05,19.4,25.6,07.2,04.9,0676.5,31.1
2021-08-10T18:43:00Z,00040200,00000000,0001.60,0001.06,0000.62,0001.21,0000.06,-000.09,-000.36,0000.09,-000.17,19.4,25.5,06.9,04.8,0676.5,31.1
2021-08-10T18:44:00Z,00040200,00000000,0001.81,0001.28,0000.67,0000.79,0000.21,-000.21,0000.14,-000.18,-000.00,19.4,25.6,07.0,04.8,0676.5,31.1
2021-08-10T18:45:00Z,00040200,00000000,0002.25,0001.28,0000.71,0000.88,0000.28,-000.17,-000.06,0000.20,0000.15,19.4,25.6,06.9,04.7,0676.6,31.1
2021-08-10T18:46:00Z,00040200,00000000,0001.58,0001.03,0000.57,0000.51,0000.03,-000.01,0000.46,0000.48,0000.34,19.4,25.5,06.8,04.7,0676.6,31.1
2021-08-10T18:47:00Z,00040200,00000000,0001.86,0001.41,0000.55,0000.39,0000.01,-000.20,-000.05,-000.43,-000.11,19.4,25.5,06.9,04.7,0676.6,31.1
2021-08-10T18:48:00Z,00040200,00000000,0001.03,0001.16,0000.92,0000.51,0000.01,0000.05,0000.26,0000.46,0000.34,19.4,25.5,06.9,04.7,0676.6,31.1
2021-08-10T18:49:00Z,00040200,00000000,0001.45,0001.04,0000.69,0000.41,-000.15,-000.08,0000.56,0000.59,0000.28,19.4,25.6,07.0,04.8,0676.6,31.1
2021-08-10T18:50:00Z,00040200,00000000,0001.62,0001.77,0000.69,0000.52,-000.16,-000.34,-000.02,-000.15,-000.06,19.4,25.5,06.9,04.8,0676.6,31.1
2021-08-10T18:51:00Z,00040200,00000000,0001.93,0001.05,0000.83,-000.09,-000.07,-000.18,0000.34,0000.00,0000.28,19.4,25.5,07.0,04.8,0676.6,31.1
2021-08-10T18:52:00Z,00040200,00000000,0001.85,0001.09,0000.54,0000.33,0000.01,-000.16,-000.10,0000.26,0000.27,19.4,25.5,06.8,04.7,0676.6,31.1
2021-08-10T18:53:00Z,00040200,00000000,0001.71,0001.07,0001.11,0000.41,0000.06,-000.08,0000.13,-000.19,-000.34,19.4,25.5,06.9,04.7,0676.6,31.1
2021-08-10T18:54:00Z,00040200,00000000,0001.54,0001.59,0000.89,0000.21,0000.07,0000.06,-000.00,0000.59,0000.66,19.4,25.5,06.8,04.7,0676.6,31.1
2021-08-10T18:55:00Z,00040200,00000000,0002.00,0001.16,0000.49,-000.25,-000.00,0000.03,0000.11,-000.22,-000.20,19.4,25.5,06.9,04.7,0676.6,31.1
2021-08-10T18:56:00Z,00040200,00000000,0002.05,0001.37,0000.93,0000.37,0000.18,-000.05,0000.14,0000.08,0000.33,19.4,25.5,06.9,04.7,0676.6,31.1
2021-08-10T18:57:00Z,00040200,40000000,,,,,,,0000.13,0000.02,-000.12,19.4,25.6,07.3,05.0,0676.6,31.1
2021-08-10T18:58:00Z,00040200,60000000,,,,,,,-000.11,0000.12,0000.12,19.1,25.7,06.8,04.5,0675.6,31.1
2021-08-10T18:59:00Z,00040200,20000000,,,,,,,-000.01,0000.03,-000.09,19.1,25.8,06.6,04.4,0675.6,31.1
